THORAD AGENA D DEB, 6167

Orbit data source: Space-Track

THORAD AGENA D DEB, 6167 is space debris in SSO originally from a launch on Wed, 08 Apr 1970 UTC launched from the Air Force Western Test Range (AFWTR). Debris objects in space refer to the collection of defunct objects orbiting the Earth. Examples of debris include non-operational satellites, rocket bodies, and fragments generated from explosions, collisions, or faulty payload assembly.

Loading next visibility...
Identifier
6167, 1970-025NB
Orbit
SSO
Country
Flag of USUS
Related business
Manufacturer
Unknown
Mission
Spacecraft
Bus & Motor
Unknown
Mass
Unknown
Launch date (UTC)
1970-04-08 (56 years ago)
Launch vehicle
Unknown
Launch site
Air Force Western Test Range (AFWTR)
Object type
Payload
Rocket body
Debris
Shape & HBR
Unknown shape, 0.1 m
Radar Cross Section
Small (<0.1 m²)

Expand to show TLE details & history
Last TLE update: 11 hours ago

TLE from 11 hours ago
0 THORAD AGENA D DEB
1  6167U 70025NB  25299.98162316  .00000651  00000-0  80964-3 0  9999
2  6167 100.1278 303.0310 0031556 194.6302 220.9414 13.68830501763458
Epoch: 2025-10-26T23:33Z
TLE epoch observation values (Epoch: 2025-10-26T23:33:32.241Z)
Latitude
54.1635°
Longitude
-100.1881°
Altitude
1,030.216 km
Speed
7.333 km/s
True Right ascension
19h 15m 08s
True Declination
54° 00' 22"
Sunlit
Object was in daylight at epoch
Visualization orbit readout
Latitude
Unknown
Longitude
Unknown
Altitude
Unknown
Speed
Unknown
Apparent Right ascension
Unknown
Apparent Declination
Unknown
Sunlit
N/A
Visualization observer readout
Local Sidereal Time
06:07:02
Azimuth
Unknown
Elevation
Unknown
Doppler factor
Unknown
Orbital elements
Apogee altitude
1,024.357 km
Perigee altitude
977.786 km
Semi-major axis
7,379.209 km
Eccentricity
0.00316
Inclination
100.1278°
RAAN
303.031°
Arg. of periapsis
194.6302°
True anomaly
220.70515°
Mean anomaly
220.9414°
Eccentric anomaly
220.8232°
Mean motion
3.42396 °/min
Orbital period
105.14 mins
BSTAR
0.00080964
Loading maneuver chart data...
Computing Atmospheric mass density...

Documentation

Showing up to 5 results
|